Tracking 18852 objects as of 23-Nov-2017
HD Live streaming from Space Station
objects crossing your sky now

SL-23 DEB

Track SL-23 DEB now!


NORAD ID: 35577
Int'l Code: 2009-009C
Perigee: 1,505.8 km
Apogee: 35,670.9 km
Inclination: 35.2 °
Period: 654.0 minutes
Semi major axis: 24959 km
RCS: 0.1999 m2 (medium)
Launch date: February 26, 2009
Source: Commonwealth of Independent States (former USSR) (CIS)
Launch site: TYURATAM MISSILE AND SPACE COMPLEX (TTMTR)

Note: This is SATELLITE DEBRIS
aabbcc
Your satellite tracking list
Your tracking list is empty




NASA's NSSDC Master Catalog

Two Line Element Set (TLE):
1 35577U 09009C   17326.64813966 -.00000191  00000-0  00000+0 0  9998
2 35577  35.2110 350.8476 6844146  87.1489   8.8563  2.20167218 68861
Source of the keplerian elements: AFSPC